Weather History for Friday Harbor, WA

Change the Weather History Date:

Tuesday, October 2, 2012

  Actual Average Record
Temperature  
Mean Temperature 50 °F -  
Max Temperature 61 °F 59 °F 66 °F (2004)
Min Temperature 39 °F 44 °F 39 °F (1999)
Degree Days  
Heating Degree Days 15    
Moisture  
Dew Point 43 °F    
Average Humidity 77    
Maximum Humidity 100    
Minimum Humidity 36    
Precipitation  
Precipitation 0.00 in - - ()
Sea Level Pressure  
Sea Level Pressure 30.23 in    
Wind  
Wind Speed 2 mph (NNE)    
Max Wind Speed 13 mph    
Max Gust Speed 18 mph    
Visibility 9 miles    
Events      
Averages and records for this station are not official NWS values.
T = Trace of Precipitation, MM = Missing Value Source: NWS Daily Summary

Daily Weather History Graph

Daily Weather History Graph

Search for Another Location

Airport:

Trip Planner

Search our weather history database for the weather conditions in past years. The results will help you decide how hot, cold, wet, or windy it might be!

Date:

Astronomy

Oct. 02, 2012 Rise Set
Actual Time 7:13 AM PDT 6:47 PM PDT
Civil Twilight 6:42 AM PDT 7:18 PM PDT
Nautical Twilight 6:06 AM PDT 7:55 PM PDT
Astronomical Twilight 5:29 AM PDT 8:32 PM PDT
Moon 7:46 PM PDT (10/2) 10:02 AM PDT (10/2)
Length of Visible Light 12h 36m
Length of Day
11h 33m
Waning Gibbous, 93% of the Moon is Illuminated
Oct 2
Waning Gibbous
Oct 8
Last Quarter
Oct 15
New
Oct 21
First Quarter
Oct 29
Full

Hourly Weather History & Observations

Time (PDT) Temp. Windchill Dew Point Humidity Pressure Visibility Wind Dir Wind Speed Gust Speed Precip Events Conditions
12:53 AM 48.0 °F - 46.0 °F 93% 30.18 in 10.0 mi Calm Calm - N/A   Clear
1:53 AM 44.1 °F - 43.0 °F 96% 30.17 in 10.0 mi Calm Calm - N/A   Clear
2:53 AM 45.0 °F - 44.1 °F 97% 30.19 in 10.0 mi Calm Calm - N/A   Clear
3:53 AM 44.1 °F - 43.0 °F 96% 30.19 in 10.0 mi Calm Calm - N/A   Scattered Clouds
4:53 AM 44.1 °F - 43.0 °F 96% 30.19 in 10.0 mi Calm Calm - N/A   Partly Cloudy
5:53 AM 39.9 °F 37.8 °F 37.0 °F 89% 30.20 in 10.0 mi SW 3.5 mph - N/A   Clear
6:53 AM 41.0 °F - 39.0 °F 93% 30.20 in 10.0 mi Calm Calm - N/A   Clear
7:12 AM 42.8 °F - 41.0 °F 93% 30.20 in 10.0 mi Calm Calm - N/A   Mostly Cloudy
7:53 AM 46.9 °F - 46.0 °F 97% 30.20 in 7.0 mi Calm Calm - N/A   Scattered Clouds
8:53 AM 51.1 °F - 48.9 °F 92% 30.21 in 10.0 mi Variable 4.6 mph - N/A   Overcast
9:03 AM 48.2 °F - 48.2 °F 100% 30.22 in 2.5 mi Calm Calm - N/A   Overcast
9:10 AM 48.2 °F - 48.2 °F 100% 30.21 in 1.0 mi Calm Calm - N/A   Overcast
9:38 AM 48.2 °F - 48.2 °F 100% 30.22 in 0.8 mi SW 5.8 mph - N/A   Overcast
9:48 AM 48.2 °F - 48.2 °F 100% 30.22 in 2.0 mi Variable 4.6 mph - N/A   Overcast
9:53 AM 48.9 °F - 48.0 °F 97% 30.22 in 5.0 mi Calm Calm - N/A   Overcast
10:10 AM 50.0 °F - 48.2 °F 94% 30.22 in 10.0 mi Calm Calm - N/A   Overcast
10:21 AM 51.8 °F - 48.2 °F 88% 30.22 in 10.0 mi Calm Calm - N/A   Overcast
10:53 AM 52.0 °F - 46.9 °F 83% 30.23 in 10.0 mi ESE 3.5 mph - N/A   Mostly Cloudy
11:01 AM 51.8 °F - 46.4 °F 82% 30.22 in 10.0 mi ESE 4.6 mph - N/A   Mostly Cloudy
11:22 AM 51.8 °F - 46.4 °F 82% 30.22 in 10.0 mi ESE 4.6 mph - N/A   Overcast
11:30 AM 53.6 °F - 46.4 °F 77% 30.22 in 10.0 mi East 3.5 mph - N/A   Overcast
11:53 AM 55.9 °F - 46.0 °F 69% 30.22 in 10.0 mi SE 4.6 mph - N/A   Mostly Cloudy
1:53 PM 60.1 °F - 43.0 °F 53% 30.21 in 10.0 mi ESE 6.9 mph - N/A   Mostly Cloudy
2:53 PM 61.0 °F - 34.0 °F 36% 30.21 in 10.0 mi North 12.7 mph 18.4 mph N/A   Clear
3:53 PM 57.9 °F - 37.9 °F 47% 30.23 in 10.0 mi North 8.1 mph 17.3 mph N/A   Partly Cloudy
4:53 PM 57.0 °F - 39.9 °F 53% 30.24 in 10.0 mi Variable 6.9 mph - N/A   Clear
5:25 PM 55.4 °F - 41.0 °F 58% 30.23 in 2.0 mi Variable 4.6 mph - N/A   Haze
5:35 PM 55.4 °F - 41.0 °F 58% 30.23 in 10.0 mi North 4.6 mph - N/A   Clear
5:53 PM 55.9 °F - 41.0 °F 57% 30.24 in 10.0 mi North 6.9 mph - N/A   Clear
6:53 PM 54.0 °F - 41.0 °F 62% 30.25 in 10.0 mi Variable 3.5 mph - N/A   Clear
7:53 PM 55.0 °F - 37.9 °F 53% 30.25 in 10.0 mi NW 3.5 mph - N/A   Clear
8:53 PM 55.0 °F - 35.1 °F 47% 30.27 in 10.0 mi North 8.1 mph 16.1 mph N/A   Clear
9:53 PM 54.0 °F - 37.0 °F 53% 30.30 in 10.0 mi NNW 4.6 mph - N/A   Clear
10:53 PM 53.1 °F - 41.0 °F 64% 30.33 in 10.0 mi Variable 5.8 mph - N/A   Clear
11:53 PM 53.1 °F - 37.0 °F 55% 30.34 in 10.0 mi North 5.8 mph - N/A   Clear